Alexandria, MN

11:11 AM CST on February 09, 2016 (GMT -0600)
Chandler

Weather History for KAXN - March, 2013

Change the Weather History Date:

Sunday, March 17, 2013

  Actual Average Record
Temperature  
Mean Temperature 10 °F -  
Max Temperature 23 °F 35 °F 75 °F (2012)
Min Temperature -2 °F 19 °F -10 °F (1967)
Degree Days  
Heating Degree Days 56    
Moisture  
Dew Point 7 °F    
Average Humidity 76    
Maximum Humidity 93    
Minimum Humidity 65    
Precipitation  
Precipitation 0.02 in - - ()
Sea Level Pressure  
Sea Level Pressure 30.00 in    
Wind  
Wind Speed 13 mph (ESE)    
Max Wind Speed 25 mph    
Max Gust Speed 36 mph    
Visibility 7 miles    
Events Fog , Snow    
Averages and records for this station are not official NWS values.
T = Trace of Precipitation, MM = Missing Value Source: NWS Daily Summary

Daily Weather History Graph

Daily Weather History Graph

Search for Another Location

Airport or City:

Trip Planner

Search our weather history database for the weather conditions in past years. The results will help you decide how hot, cold, wet, or windy it might be!

Date:

Astronomy

Mar. 17, 2013 Rise Set
Actual Time 7:29 AM CDT 7:30 PM CDT
Civil Twilight 7:00 AM CDT 8:00 PM CDT
Nautical Twilight 6:25 AM CDT 8:35 PM CDT
Astronomical Twilight 5:49 AM CDT 9:10 PM CDT
Moon 10:25 AM CDT (3/17) 12:56 AM CDT (3/17)
Length of Visible Light 13h 00m
Length of Day
12h 00m
Waxing Crescent, 31% of the Moon is Illuminated
Mar 17
Waxing Crescent
Mar 19
First Quarter
Mar 27
Full
Apr 2
Last Quarter
Apr 10
New

Hourly Weather History & Observations

Time (CDT) Temp. Windchill Dew Point Humidity Pressure Visibility Wind Dir Wind Speed Gust Speed Precip Events Conditions
12:53 AM -0.9 °F -12.7 °F -6.0 °F 79% 30.35 in 10.0 mi NNW 5.8 mph - N/A   Clear
1:53 AM -2.9 °F -13.3 °F -7.1 °F 82% 30.33 in 10.0 mi NNE 4.6 mph - N/A   Clear
2:53 AM -0.0 °F -11.6 °F -5.1 °F 79% 30.32 in 10.0 mi NE 5.8 mph - N/A   Clear
3:53 AM -2.0 °F -16.6 °F -7.1 °F 79% 30.31 in 10.0 mi ENE 8.1 mph - N/A   Clear
4:53 AM -2.9 °F -13.3 °F -8.0 °F 79% 30.31 in 10.0 mi ENE 4.6 mph - N/A   Clear
5:53 AM -0.9 °F -16.4 °F -7.1 °F 75% 30.29 in 10.0 mi East 9.2 mph - N/A   Mostly Cloudy
6:53 AM -2.0 °F -18.7 °F -8.0 °F 76% 30.27 in 10.0 mi East 10.4 mph - N/A   Clear
7:53 AM -2.0 °F -18.7 °F -7.1 °F 79% 30.25 in 10.0 mi ESE 10.4 mph - N/A   Clear
8:53 AM 1.0 °F -17.3 °F -6.0 °F 72% 30.25 in 10.0 mi ESE 13.8 mph - N/A   Mostly Cloudy
9:53 AM 5.0 °F -13.6 °F -4.0 °F 66% 30.22 in 10.0 mi SE 16.1 mph 25.3 mph N/A   Overcast
10:53 AM 6.1 °F -9.5 °F -2.0 °F 69% 30.21 in 10.0 mi SE 11.5 mph 24.2 mph N/A   Overcast
11:53 AM 9.0 °F -9.0 °F -0.0 °F 67% 30.18 in 10.0 mi SE 17.3 mph - N/A   Overcast
12:53 PM 12.0 °F -4.5 °F 3.9 °F 70% 30.15 in 10.0 mi SE 16.1 mph 26.5 mph N/A   Overcast
1:53 PM 15.1 °F -2.0 °F 6.1 °F 68% 30.11 in 10.0 mi SSE 19.6 mph - N/A   Mostly Cloudy
2:53 PM 17.1 °F 0.1 °F 7.0 °F 65% 30.05 in 10.0 mi SE 20.7 mph 27.6 mph N/A   Overcast
3:53 PM 18.0 °F 1.7 °F 9.0 °F 68% 30.01 in 10.0 mi SE 19.6 mph 25.3 mph N/A   Overcast
4:53 PM 19.0 °F 2.4 °F 9.0 °F 65% 29.99 in 10.0 mi ESE 21.9 mph 26.5 mph N/A   Overcast
5:53 PM 19.9 °F 4.8 °F 10.0 °F 65% 29.94 in 10.0 mi SE 18.4 mph 27.6 mph N/A   Overcast
6:53 PM 19.9 °F 5.2 °F 10.9 °F 68% 29.92 in 10.0 mi ESE 17.3 mph 23.0 mph N/A   Overcast
7:53 PM 21.0 °F 5.7 °F 12.0 °F 68% 29.90 in 10.0 mi SE 19.6 mph 25.3 mph N/A   Overcast
8:53 PM 21.0 °F 5.0 °F 14.0 °F 74% 29.88 in 1.8 mi SE 21.9 mph 32.2 mph 0.00 in Snow Light Snow
9:05 PM 21.2 °F 5.2 °F 15.8 °F 80% 29.77 in 3.0 mi SE 21.9 mph 31.1 mph 0.00 in Snow Light Snow
9:12 PM 21.2 °F 6.0 °F 15.8 °F 80% 29.76 in 6.0 mi SE 19.6 mph 31.1 mph 0.00 in Snow Light Snow
9:29 PM 21.2 °F 6.0 °F 15.8 °F 80% 29.76 in 10.0 mi SE 19.6 mph 29.9 mph 0.00 in   Overcast
9:53 PM 21.0 °F 4.6 °F 15.1 °F 78% 29.84 in 4.0 mi SE 23.0 mph 31.1 mph 0.00 in Snow Light Snow
10:15 PM 21.2 °F 4.9 °F 15.8 °F 80% 29.73 in 1.8 mi SE 23.0 mph 29.9 mph 0.00 in Snow Light Snow
10:23 PM 21.2 °F 5.6 °F 15.8 °F 80% 29.72 in 1.0 mi SE 20.7 mph 28.8 mph 0.00 in Snow Light Snow
10:34 PM 21.2 °F 4.9 °F 17.6 °F 86% 29.72 in 0.8 mi SE 23.0 mph 35.7 mph 0.00 in Snow Light Snow
10:43 PM 21.2 °F 4.9 °F 17.6 °F 86% 29.69 in 0.5 mi SE 23.0 mph 35.7 mph 0.00 in Fog , Snow Snow
10:53 PM 21.9 °F 6.5 °F 18.0 °F 85% 29.77 in 0.5 mi SE 20.7 mph 29.9 mph 0.00 in Fog , Snow Snow
11:14 PM 21.2 °F 4.2 °F 19.4 °F 93% 29.67 in 0.8 mi SE 25.3 mph 34.5 mph 0.01 in Snow Light Snow
11:19 PM 21.2 °F 5.6 °F 19.4 °F 93% 29.67 in 0.5 mi SE 20.7 mph 34.5 mph 0.01 in Fog , Snow Snow
11:53 PM 21.9 °F 6.2 °F 19.0 °F 89% 29.73 in 0.5 mi SE 21.9 mph 29.9 mph 0.02 in Fog , Snow Snow